TimeEDT,TemperatureF,Dew PointF,Humidity,Sea Level PressureIn,VisibilityMPH,Wind Direction,Wind SpeedMPH,Gust SpeedMPH,PrecipitationIn,Events,Conditions,WindDirDegrees,DateUTC
12:51 AM,43.0,37.0,80,30.13,8.0,NNE,4.6,-,0.03,Rain,Light Rain,30,2014-05-09 04:51:00
1:51 AM,44.1,37.0,76,30.11,10.0,NNE,3.5,-,0.00,,Overcast,20,2014-05-09 05:51:00
2:51 AM,44.1,37.0,76,30.10,10.0,Calm,Calm,-,N/A,,Overcast,0,2014-05-09 06:51:00
3:51 AM,45.0,37.0,74,30.10,10.0,NE,3.5,-,N/A,,Overcast,50,2014-05-09 07:51:00
4:51 AM,44.1,39.9,85,30.08,10.0,Calm,Calm,-,N/A,,Overcast,0,2014-05-09 08:51:00
5:51 AM,46.0,37.9,73,30.08,10.0,NNE,6.9,-,N/A,,Overcast,30,2014-05-09 09:51:00
6:51 AM,46.9,39.0,74,30.09,10.0,NNE,3.5,-,0.00,Rain,Light Rain,20,2014-05-09 10:51:00
7:51 AM,48.9,39.0,69,30.08,10.0,Calm,Calm,-,0.00,,Overcast,0,2014-05-09 11:51:00
8:51 AM,51.1,43.0,74,30.07,10.0,Calm,Calm,-,N/A,,Overcast,0,2014-05-09 12:51:00
9:51 AM,62.1,48.0,60,30.04,10.0,SSE,10.4,-,N/A,,Clear,150,2014-05-09 13:51:00
10:51 AM,66.0,50.0,56,30.03,10.0,WSW,10.4,-,N/A,,Scattered Clouds,240,2014-05-09 14:51:00
11:51 AM,66.9,50.0,54,30.03,10.0,WSW,12.7,-,N/A,,Scattered Clouds,240,2014-05-09 15:51:00
12:51 PM,70.0,51.1,51,30.00,10.0,Variable,5.8,-,N/A,,Partly Cloudy,0,2014-05-09 16:51:00
1:51 PM,73.0,52.0,48,29.96,10.0,South,10.4,-,N/A,,Partly Cloudy,170,2014-05-09 17:51:00
3:51 PM,71.1,53.1,53,29.93,10.0,SW,13.8,-,N/A,,Clear,220,2014-05-09 19:51:00
4:51 PM,66.0,53.1,63,29.93,10.0,SE,10.4,20.7,N/A,,Partly Cloudy,140,2014-05-09 20:51:00
5:51 PM,64.0,54.0,70,29.92,10.0,SSE,6.9,-,N/A,,Clear,160,2014-05-09 21:51:00
6:51 PM,62.1,54.0,75,29.91,10.0,South,8.1,-,N/A,,Clear,170,2014-05-09 22:51:00
7:51 PM,62.1,54.0,75,29.90,10.0,South,8.1,-,N/A,,Clear,170,2014-05-09 23:51:00
8:51 PM,61.0,53.1,75,29.89,10.0,South,6.9,-,N/A,,Clear,170,2014-05-10 00:51:00
9:51 PM,60.1,54.0,80,29.87,10.0,South,5.8,-,N/A,,Clear,180,2014-05-10 01:51:00
10:51 PM,60.1,54.0,80,29.90,10.0,SW,17.3,26.5,N/A,,Mostly Cloudy,220,2014-05-10 02:51:00
11:51 PM,59.0,55.0,87,29.87,10.0,SSW,11.5,-,0.02,Rain,Light Rain,200,2014-05-10 03:51:00